Location: Tamazert
(32.6352°N, 5.2072°W)
Time: 05:32:58
(UTC+00:00)

Vanguard 2 - Pass Details

Date: 07 October 2022
Orbit: 553 x 2933 km, 32.9° (Epoch: 04 December)

Event Time Altitude Azimuth Distance (km) Brightness Sun altitude
Rises 18:17:22 0° 285° (WNW) 6,069 13.8 -4.9°
Reaches altitude 10° 18:21:18 10° 279° (W) 5,296 13.5 -5.7°
Maximum altitude 18:36:26 44° 215° (SW) 3,664 11.3 -8.9°
Drops below altitude 10° 18:52:07 10° 150° (SSE) 5,441 11.5 -12.2°
Sets 18:56:18 0° 144° (SE) 6,239 11.8 -13.1°
